Stündliche Wetter Caudebec-en-Caux

Heute, 19 Januar, Dienstag

Zeit Temperatur Niederschläge Wind Luftdruck Luftfeuchtigkeit
00:00 +4°C° 0 mm 7 m/S 755 mmHg 89%
01:00 +4°C° 0.1 mm 8 m/S 754 mmHg 88%
02:00 +5°C° 0.1 mm 8 m/S 753 mmHg 88%
03:00 +5°C° 0.1 mm 9 m/S 752 mmHg 88%
04:00 +5°C° 0.4 mm 9 m/S 752 mmHg 88%
05:00 +6°C° 0.4 mm 9 m/S 751 mmHg 89%
06:00 +6°C° 0.4 mm 10 m/S 751 mmHg 90%
07:00 +6°C° 0.3 mm 9 m/S 751 mmHg 89%
08:00 +7°C° 0.3 mm 9 m/S 751 mmHg 88%
09:00 +7°C° 0.3 mm 9 m/S 751 mmHg 88%
10:00 +7°C° 0 mm 9 m/S 751 mmHg 85%
11:00 +8°C° 0 mm 9 m/S 751 mmHg 82%
12:00 +8°C° 0 mm 9 m/S 751 mmHg 79%
13:00 +9°C° 0 mm 8 m/S 750 mmHg 79%
14:00 +9°C° 0 mm 8 m/S 749 mmHg 80%
15:00 +9°C° 0 mm 8 m/S 748 mmHg 80%
16:00 +7°C° 0 mm 8 m/S 748 mmHg 81%
17:00 +7°C° 0 mm 8 m/S 748 mmHg 82%
18:00 +7°C° 0 mm 8 m/S 747 mmHg 84%
19:00 +7°C° 0 mm 8 m/S 747 mmHg 83%
20:00 +6°C° 0 mm 8 m/S 746 mmHg 83%
21:00 +6°C° 0 mm 9 m/S 745 mmHg 83%
22:00 +7°C° 0 mm 9 m/S 745 mmHg 82%
23:00 +7°C° 0 mm 9 m/S 745 mmHg 80%

Morgen, 20 Januar, Mittwoch

Zeit Temperatur Niederschläge Wind Luftdruck Luftfeuchtigkeit
00:00 +7°C° 0 mm 9 m/S 744 mmHg 79%
01:00 +7°C° 0 mm 9 m/S 744 mmHg 78%
02:00 +7°C° 0 mm 9 m/S 743 mmHg 78%
03:00 +7°C° 0 mm 9 m/S 743 mmHg 77%
04:00 +6°C° 0.3 mm 9 m/S 742 mmHg 80%
05:00 +6°C° 0.3 mm 9 m/S 742 mmHg 84%
06:00 +6°C° 0.3 mm 8 m/S 742 mmHg 87%
07:00 +6°C° 0.2 mm 8 m/S 741 mmHg 84%
08:00 +6°C° 0.2 mm 8 m/S 741 mmHg 81%
09:00 +5°C° 0.2 mm 8 m/S 740 mmHg 78%
10:00 +6°C° 0 mm 9 m/S 740 mmHg 77%
11:00 +6°C° 0 mm 9 m/S 739 mmHg 76%
12:00 +6°C° 0 mm 9 m/S 739 mmHg 75%
13:00 +6°C° 0 mm 9 m/S 738 mmHg 75%
14:00 +7°C° 0 mm 10 m/S 737 mmHg 76%
15:00 +7°C° 0 mm 10 m/S 737 mmHg 76%
16:00 +7°C° 0 mm 10 m/S 736 mmHg 77%
17:00 +7°C° 0 mm 10 m/S 736 mmHg 77%
18:00 +7°C° 0 mm 10 m/S 735 mmHg 78%
19:00 +7°C° 0 mm 11 m/S 734 mmHg 78%
20:00 +7°C° 0 mm 11 m/S 733 mmHg 78%
21:00 +7°C° 0 mm 12 m/S 732 mmHg 78%
22:00 +7°C° 0 mm 12 m/S 732 mmHg 78%
23:00 +8°C° 0 mm 11 m/S 731 mmHg 78%

übermorgen, 21 Januar, Donnerstag

Zeit Temperatur Niederschläge Wind Luftdruck Luftfeuchtigkeit
00:00 +8°C° 0 mm 11 m/S 730 mmHg 78%
01:00 +7°C° 0.8 mm 11 m/S 731 mmHg 76%
02:00 +6°C° 0.8 mm 11 m/S 731 mmHg 74%
03:00 +4°C° 0.8 mm 11 m/S 732 mmHg 72%
04:00 +5°C° 0 mm 10 m/S 733 mmHg 74%
05:00 +4°C° 0 mm 8 m/S 734 mmHg 76%
06:00 +3°C° 0 mm 7 m/S 736 mmHg 78%
07:00 +3°C° 0 mm 7 m/S 736 mmHg 79%
08:00 +3°C° 0 mm 7 m/S 736 mmHg 80%
09:00 +3°C° 0 mm 7 m/S 736 mmHg 81%
10:00 +4°C° 0 mm 7 m/S 736 mmHg 78%
11:00 +5°C° 0 mm 8 m/S 736 mmHg 74%
12:00 +6°C° 0 mm 8 m/S 736 mmHg 71%
13:00 +6°C° 0.1 mm 7 m/S 735 mmHg 74%
14:00 +5°C° 0.1 mm 7 m/S 734 mmHg 76%
15:00 +5°C° 0.1 mm 6 m/S 733 mmHg 79%
16:00 +6°C° 2.1 mm 5 m/S 733 mmHg 84%
17:00 +5°C° 2.1 mm 4 m/S 732 mmHg 89%
18:00 +5°C° 2.1 mm 4 m/S 731 mmHg 95%
19:00 +4°C° 0.6 mm 4 m/S 731 mmHg 94%
20:00 +3°C° 0.6 mm 5 m/S 731 mmHg 93%
21:00 +2°C° 0.6 mm 5 m/S 731 mmHg 92%
22:00 +3°C° 0.2 mm 5 m/S 732 mmHg 90%
23:00 +3°C° 0.2 mm 5 m/S 733 mmHg 87%

22 Januar, Freitag

Zeit Temperatur Niederschläge Wind Luftdruck Luftfeuchtigkeit
00:00 +3°C° 0.2 mm 5 m/S 734 mmHg 85%
01:00 +3°C° 0.2 mm 5 m/S 735 mmHg 85%
02:00 +2°C° 0.2 mm 5 m/S 736 mmHg 85%
03:00 +2°C° 0.2 mm 5 m/S 737 mmHg 85%
04:00 +1°C° 0.1 mm 5 m/S 737 mmHg 86%
05:00 +1°C° 0.1 mm 5 m/S 738 mmHg 86%
06:00 +1°C° 0.1 mm 5 m/S 738 mmHg 86%
07:00 +1°C° 0 mm 4 m/S 739 mmHg 86%
08:00 +1°C° 0 mm 4 m/S 739 mmHg 85%
09:00 +3°C° 0 mm 4 m/S 739 mmHg 84%
10:00 +3°C° 0 mm 5 m/S 740 mmHg 81%
11:00 +5°C° 0 mm 5 m/S 740 mmHg 77%
12:00 +5°C° 0 mm 6 m/S 740 mmHg 73%
13:00 +5°C° 0.2 mm 6 m/S 740 mmHg 74%
14:00 +5°C° 0.2 mm 5 m/S 740 mmHg 75%
15:00 +5°C° 0.2 mm 5 m/S 740 mmHg 77%
16:00 +5°C° 0.2 mm 5 m/S 740 mmHg 78%
17:00 +3°C° 0.2 mm 6 m/S 740 mmHg 79%
18:00 +3°C° 0.2 mm 6 m/S 740 mmHg 80%
19:00 +2°C° 0.1 mm 5 m/S 740 mmHg 81%
20:00 +2°C° 0.1 mm 5 m/S 740 mmHg 83%
21:00 +2°C° 0.1 mm 5 m/S 739 mmHg 84%
22:00 +2°C° 0 mm 5 m/S 739 mmHg 86%
23:00 +2°C° 0 mm 5 m/S 738 mmHg 88%

23 Januar, Samstag

Zeit Temperatur Niederschläge Wind Luftdruck Luftfeuchtigkeit
00:00 +2°C° 0 mm 5 m/S 738 mmHg 89%
01:00 +3°C° 0.2 mm 4 m/S 737 mmHg 91%
02:00 +3°C° 0.2 mm 4 m/S 735 mmHg 93%
03:00 +3°C° 0.2 mm 3 m/S 734 mmHg 95%
04:00 +3°C° 0.2 mm 3 m/S 734 mmHg 94%
05:00 +3°C° 0.2 mm 3 m/S 734 mmHg 93%
06:00 +2°C° 0.2 mm 3 m/S 734 mmHg 92%
07:00 +3°C° 0.1 mm 4 m/S 734 mmHg 90%
08:00 +2°C° 0.1 mm 5 m/S 735 mmHg 88%
09:00 +3°C° 0.1 mm 7 m/S 736 mmHg 86%
10:00 +3°C° 0.2 mm 7 m/S 737 mmHg 84%
11:00 +3°C° 0.2 mm 7 m/S 737 mmHg 83%
12:00 +3°C° 0.2 mm 7 m/S 738 mmHg 81%
13:00 +3°C° 0 mm 6 m/S 738 mmHg 79%
14:00 +3°C° 0 mm 5 m/S 738 mmHg 78%
15:00 +4°C° 0 mm 4 m/S 738 mmHg 76%
16:00 +3°C° 0.1 mm 3 m/S 739 mmHg 82%
17:00 +3°C° 0.1 mm 2 m/S 739 mmHg 87%
18:00 +4°C° 0.1 mm 1 m/S 739 mmHg 93%
19:00 +3°C° 0.2 mm 2 m/S 739 mmHg 92%
20:00 +2°C° 0.2 mm 3 m/S 739 mmHg 92%
21:00 +2°C° 0.2 mm 3 m/S 739 mmHg 92%
22:00 +1°C° 0.2 mm 4 m/S 739 mmHg 90%
23:00 +1°C° 0.2 mm 5 m/S 739 mmHg 87%

24 Januar, Sonntag

Zeit Temperatur Niederschläge Wind Luftdruck Luftfeuchtigkeit
00:00 +1°C° 0.2 mm 5 m/S 739 mmHg 85%
01:00 +1°C° 0.1 mm 5 m/S 739 mmHg 87%
02:00 +1°C° 0.1 mm 5 m/S 739 mmHg 90%
03:00 +1°C° 0.1 mm 5 m/S 739 mmHg 93%
04:00 +1°C° 0.4 mm 6 m/S 739 mmHg 91%
05:00 +2°C° 0.4 mm 6 m/S 739 mmHg 90%
06:00 +2°C° 0.4 mm 7 m/S 739 mmHg 89%
07:00 +2°C° 0.4 mm 7 m/S 739 mmHg 89%
08:00 +2°C° 0.4 mm 7 m/S 739 mmHg 89%
09:00 +1°C° 0.4 mm 8 m/S 739 mmHg 90%
10:00 +2°C° 0.3 mm 8 m/S 740 mmHg 81%
11:00 +2°C° 0.3 mm 9 m/S 740 mmHg 72%
12:00 +3°C° 0.3 mm 9 m/S 741 mmHg 63%
13:00 +3°C° 0.3 mm 9 m/S 741 mmHg 66%
14:00 +2°C° 0.3 mm 9 m/S 741 mmHg 68%
15:00 +2°C° 0.3 mm 8 m/S 741 mmHg 70%
16:00 +3°C° 0.3 mm 7 m/S 742 mmHg 73%
17:00 +2°C° 0.3 mm 7 m/S 742 mmHg 75%
18:00 +2°C° 0.3 mm 6 m/S 743 mmHg 77%
19:00 +2°C° 0.3 mm 5 m/S 744 mmHg 79%
20:00 +2°C° 0.3 mm 5 m/S 744 mmHg 81%
21:00 +1°C° 0.3 mm 5 m/S 745 mmHg 82%
22:00 +1°C° 0.2 mm 4 m/S 746 mmHg 83%
23:00 +1°C° 0.2 mm 4 m/S 746 mmHg 85%
Mehr zeigen

Wir brauchen deine Erlaubnis

Meteoprog und unser Service Anbieter werden persönliche Daten aufbewahren, so wie Cookies, Geräte Bezeichnung oder ähnliche Technologien von deinem Gerät und Prozess, so wie Persönliche Daten Inhalte und Werbungen, genauso wie social Media und den Verkehr zu analysieren.

  • Aufbewahrung und/oder Zugang zu deiner Geräte Informationen.

    Cookies, Geräte Bezeichnung oder andere Informationen, können aufbewahrt oder Zugang zu deinem Gerät erhalten, für den Grund, der oben angegeben wird.

  • Personalisierte Werbung und Inhalte, Messungen, Einblick in das Publikum und Produkt Entwicklung.

    Werbungen und Inhalte können personalisiert werden, basierend auf ein Profil. Mehr Daten können besser personalisierte Werbungen und Inhalte hinzufügen. Werbung und Inhalte können gezeigt und gemessen werden. Einblicke über das Publikum, welche die Werbung gesehen haben und den Inhalt, können abgeleitet werden. So wie Daten können genutzt werden, um es zu verbessern oder die Benutzer Erfahrung zu verbessern das System und die Software.

Wenn du “Ich stimme zu” klickst, erlaubst du uns, die Cookies zu benutzen die Geräte Bezeichnung, den Web oder ähnliche Technologien zu benutzen. Deine Settings, können in deinem Gerät bei deinem Browser geändert werden.

Für den bestimmten Zweck, berechtigten Interessen beruhen darauf, mehr als auf den Inhalt. Du kannst mehr darüber in unseren Privaten und Cookie Politik lesen.